User: anonymous   Login
Location: Brno
(49.2000°N, 16.6330°E)
Time: 05:29:24
(UTC+02:00)
Language:

Iridium 2 - Orbit

View from above orbital plane
View from above orbital plane
View from above satellite
View from above satellite

Ground track
Ground track

The orbit data is extracted from the following two-line orbital elements,

1 25527U 98066A   14297.46969757  .00010905  00000-0  68670-3 0  4132
2 25527 085.5379 240.4705 0012624 043.7167 094.0891 15.08990456871616
Epoch (UTC): 24 October 2014 11:16:21
Eccentricity: 0.0012624
inclination: 85.5379°
perigee height: 530 km
apogee height: 548 km
right ascension of ascending node: 240.4705°
argument of perigee: 43.7167°
revolutions per day: 15.08990456
mean anomaly at epoch: 94.0891°
orbit number at epoch: 87161

The dashed part of the orbit path shows where the satellite is in the earth's shadow,  

DLR